THOR ABLESTAR DEB, 5745

Orbit data source: Space-Track

THOR ABLESTAR DEB, 5745 is space debris in LEO originally from a launch on Thu, 29 Jun 1961 UTC launched from the Air Force Eastern Test Range (AFETR). Debris objects in space refer to the collection of defunct objects orbiting the Earth. Examples of debris include non-operational satellites, rocket bodies, and fragments generated from explosions, collisions, or faulty payload assembly.

Loading next visibility...
Identifier
5745, 1961-015JU
Orbit
LEO
Country
Flag of USUS
Related business
Manufacturer
Unknown
Mission
Spacecraft
Bus & Motor
Unknown
Mass
Unknown
Launch date (UTC)
1961-06-29 (65 years ago)
Launch vehicle
Unknown
Launch site
Air Force Eastern Test Range (AFETR)
Object type
Payload
Rocket body
Debris
Shape & HBR
Unknown
Radar Cross Section
Small (<0.1 m²)

Expand to show TLE details & history
Last TLE update: 17 hours ago

TLE from 17 hours ago
0 THOR ABLESTAR DEB
1 05745U 61015JU  26104.85854192  .00007607  00000-0  15802-2 0  9997
2 05745  67.0647 290.0008 0040950  80.6786 279.8957 14.60050731257496
Epoch: 2026-04-14T20:36Z
TLE epoch observation values (Epoch: 2026-04-14T20:36:18.021Z)
Latitude
-0.00009°
Longitude
137.89692°
Altitude
690.314 km
Speed
7.514 km/s
True Right ascension
19h 20m 00s
True Declination
0° 00' 00"
Sunlit
Object was in daylight at epoch
Visualization orbit readout
Latitude
Unknown
Longitude
Unknown
Altitude
Unknown
Speed
Unknown
Apparent Right ascension
Unknown
Apparent Declination
Unknown
Sunlit
N/A
Visualization observer readout
Local Sidereal Time
20:23:26
Azimuth
Unknown
Elevation
Unknown
Doppler factor
Unknown
Orbital elements
Apogee altitude
720.269 km
Perigee altitude
662.37 km
Semi-major axis
7,069.456 km
Eccentricity
0.0041
Inclination
67.0647°
RAAN
290.0008°
Arg. of periapsis
80.6786°
True anomaly
279.43303°
Mean anomaly
279.8957°
Eccentric anomaly
279.6644°
Mean motion
3.65144 °/min
Orbital period
98.59 mins
BSTAR
0.0015802

Documentation

Showing up to 5 results
|